P/2008 L2 ( Hill )

Japanese version
Home page
Total 6,336 html files since Dec. 4, 1995
Updated on November 30, 2008

---------------------------------------------------------------------

* Profile

Discovery Date June 12, 2008
Magnitude 18.3 mag
Discoverer R. E. Hill (Catalina Sky Survey)

* Pictures

* Orbital Elements

Epoch 2008 Aug. 2.0 TT = JDT 2454680.5
T 2008 Aug. 18.61452 TT                                 MPC
q   2.3172932            (2000.0)            P               Q
n   0.06709237     Peri.  141.32286     +0.96141158     +0.06024747
a   5.9981957      Node   217.98191     -0.07430362     +0.99632939
e   0.6136683      Incl.   25.86098     +0.26489006     +0.06081113
P  14.69

* Finding Charts

* Magnitudes Graph

        m1 = 4.3 + 5 log d + 30.0 log r(t - 50)

---------------------------------------------------------------------

The orbital elements are published on M.P.E.C. 2008-Q05.
The charts are made with StellaNavigator Ver.8 (AstroArts).
The magnitudes graphs are made with Comet for Windows.

---------------------------------------------------------------------

Copyright(C) 1995-2008 Seiichi Yoshida (comet@aerith.net). All rights reserved.